Weather History for Louisville Bowman, KY

Change the Weather History Date:

Saturday, January 19, 2013

  Actual Average Record
Temperature  
Mean Temperature 46 °F 34 °F  
Max Temperature 56 °F 42 °F 68 °F (1951)
Min Temperature 35 °F 26 °F -3 °F (1984)
Degree Days  
Heating Degree Days 19 31  
Month to date heating degree days 490 583  
Since 1 July heating degree days 2085 2247  
Cooling Degree Days 0 0  
Month to date cooling degree days 0 0  
Year to date cooling degree days 0 0  
Moisture  
Dew Point 25 °F    
Average Humidity 47    
Maximum Humidity 64    
Minimum Humidity 30    
Precipitation  
Precipitation 0.00 in 0.10 in 3.00 in (1988)
Month to date precipitation 3.62 2.24  
Year to date precipitation 3.62 2.24  
Sea Level Pressure  
Sea Level Pressure 30.16 in    
Wind  
Wind Speed 10 mph (SSW)    
Max Wind Speed 21 mph    
Max Gust Speed 28 mph    
Visibility 10 miles    
Events      
T = Trace of Precipitation, MM = Missing Value Source: NWS Daily Summary

Daily Weather History Graph

Daily Weather History Graph

Search for Another Location

Airport:

Trip Planner

Search our weather history database for the weather conditions in past years. The results will help you decide how hot, cold, wet, or windy it might be!

Date:

Astronomy

Jan. 19, 2013 Rise Set
Actual Time 7:56 AM EST 5:51 PM EST
Civil Twilight 7:27 AM EST 6:19 PM EST
Nautical Twilight 6:55 AM EST 6:52 PM EST
Astronomical Twilight 6:23 AM EST 7:23 PM EST
Moon 12:15 PM EST (1/19) 1:31 AM EST (1/19)
Length of Visible Light 10h 52m
Length of Day
9h 54m
First Quarter, 57% of the Moon is Illuminated
Jan 19
First Quarter
Jan 26
Full
Feb 3
Last Quarter
Feb 10
New
Feb 17
First Quarter

Hourly Weather History & Observations

Time (EST) Temp. Windchill Dew Point Humidity Pressure Visibility Wind Dir Wind Speed Gust Speed Precip Events Conditions
12:53 AM 39.0 °F 36.8 °F 25.0 °F 57% 30.31 in 10.0 mi South 3.5 mph - N/A   Clear
1:53 AM 39.9 °F 36.7 °F 24.1 °F 53% 30.29 in 10.0 mi South 4.6 mph - N/A   Clear
2:53 AM 39.9 °F 36.7 °F 24.1 °F 53% 30.29 in 10.0 mi South 4.6 mph - N/A   Clear
3:53 AM 39.9 °F 34.5 °F 24.1 °F 53% 30.28 in 10.0 mi South 8.1 mph - N/A   Clear
4:53 AM 39.0 °F 36.8 °F 25.0 °F 57% 30.27 in 10.0 mi South 3.5 mph - N/A   Clear
5:53 AM 37.9 °F 34.4 °F 25.0 °F 60% 30.27 in 10.0 mi South 4.6 mph - N/A   Clear
6:53 AM 37.9 °F 34.4 °F 24.1 °F 57% 30.27 in 10.0 mi South 4.6 mph - N/A   Clear
7:53 AM 36.0 °F 31.1 °F 24.1 °F 62% 30.27 in 10.0 mi South 5.8 mph - N/A   Clear
8:53 AM 39.0 °F 34.0 °F 26.1 °F 60% 30.26 in 10.0 mi South 6.9 mph - N/A   Clear
9:53 AM 44.1 °F 40.1 °F 27.0 °F 51% 30.26 in 10.0 mi South 6.9 mph - N/A   Clear
10:53 AM 48.0 °F - 26.1 °F 42% 30.25 in 10.0 mi SSW 15.0 mph 23.0 mph N/A   Clear
11:53 AM 50.0 °F - 26.1 °F 39% 30.20 in 10.0 mi SSW 13.8 mph 24.2 mph N/A   Clear
12:53 PM 53.1 °F - 26.1 °F 35% 30.15 in 10.0 mi SSW 13.8 mph 26.5 mph N/A   Clear
1:53 PM 55.0 °F - 26.1 °F 33% 30.11 in 10.0 mi SSW 15.0 mph 20.7 mph N/A   Clear
2:53 PM 55.0 °F - 25.0 °F 31% 30.08 in 10.0 mi SSW 15.0 mph 26.5 mph N/A   Clear
3:53 PM 55.9 °F - 24.1 °F 29% 30.05 in 10.0 mi SSW 15.0 mph 24.2 mph N/A   Clear
4:53 PM 55.0 °F - 25.0 °F 31% 30.04 in 10.0 mi SSW 15.0 mph 26.5 mph N/A   Clear
5:53 PM 53.1 °F - 26.1 °F 35% 30.02 in 10.0 mi SSW 12.7 mph 18.4 mph N/A   Clear
6:53 PM 52.0 °F - 26.1 °F 37% 30.02 in 10.0 mi South 11.5 mph 19.6 mph N/A   Clear
7:53 PM 51.1 °F - 26.1 °F 38% 30.04 in 10.0 mi SSW 9.2 mph 18.4 mph N/A   Clear
8:53 PM 50.0 °F - 25.0 °F 38% 30.05 in 10.0 mi SSW 10.4 mph - N/A   Clear
9:53 PM 48.9 °F - 26.1 °F 41% 30.04 in 10.0 mi SSW 10.4 mph - N/A   Clear
10:53 PM 48.9 °F - 26.1 °F 41% 30.04 in 10.0 mi SSW 9.2 mph 19.6 mph N/A   Clear
11:53 PM 48.0 °F - 28.0 °F 46% 30.05 in 10.0 mi SW 10.4 mph - N/A   Clear